Location: Hemaruka
(51.7801°N, 111.0917°W)
Time: 08:51:57
(UTC+00:00)

CAS-4B - Pass Details

Date: 05 December 2023
Orbit: 485 x 503 km, 43.0° (Epoch: 24 February)

Event Time Altitude Azimuth Distance (km) Brightness Sun altitude
Rises 02:02:50 0° 258° (WSW) 2,572 ? -24.7°
Reaches altitude 10° 02:05:35 10° 238° (WSW) 1,682 ? -25.1°
Maximum altitude 02:08:09 17° 196° (SSW) 1,285 ? -25.5°
Enters shadow 02:08:09 17° 195° (SSW) 1,285 ? -25.5°
